Вернуться в каталог

STARLINK-32325

АктивенСвязьVLEO
NORAD 61588·PAYLOAD·🇺🇸 United States

Запущен Oct 18, 2024 с Cape Canaveral Space Force Station

Loading…

Ближайшие Пролёты (ближайшие 24 часа)

TLE

СвежийSource: CelesTrak SupGP

Эпоха: Sep 14, 2026, 22:53 UTC

1 61588C 24187Q   26257.95395833  .00037646  00000+0  11122-2 0  2578
2 61588  53.1577 261.8652 0001381  94.5889  64.9323 15.34372693    15

Отслеживайте STARLINK-32325 в реальном времени с AllMySat

Download on the App Store